DW8048 Weather Reports


Display with metric or nautical units.
time (UTC)temp
F
wind
direction
speed
MPH
gust
MPH
rain 1hr
in
rain 24hr
in
rain mn
in
humidity
%
barometer
mb
20210301074306 56 248 3.0 6.0 0.00 0.03 0.03 94 1012.5
20210301073805 57 293 3.0 5.0 0.01 0.03 0.03 94 1012.3
20210301073305 57 286 4.0 8.0 0.02 0.03 0.03 94 1012.4
20210301072934 57 296 3.0 12.0 0.02 0.03 0.03 94 1012.4
20210301072313 58 288 3.0 9.0 0.02 0.03 0.03 95 1012.2
20210301071808 58 284 4.0 7.0 0.02 0.03 0.03 95 1012.1
20210301071306 58 258 1.0 8.0 0.03 0.03 0.03 95 1012.0
20210301070805 58 279 2.0 5.0 0.03 0.03 0.03 95 1012.0
20210301070305 58 260 0.0 3.0 0.03 0.03 0.03 95 1012.1
20210301065807 58 252 2.0 6.0 0.03 0.03 0.03 95 1012.1
20210301065312 58 307 3.0 5.0 0.03 0.03 0.03 94 1012.0
20210301064806 58 314 2.0 5.0 0.03 0.03 0.03 94 1012.0
20210301064309 58 272 3.0 7.0 0.03 0.03 0.03 94 1012.0
20210301063806 59 267 1.0 6.0 0.02 0.02 0.02 94 1012.0
20210301063305 59 276 2.0 5.0 0.01 0.01 0.01 93 1011.8
20210301062925 59 272 2.0 6.0 0.01 0.01 0.01 93 1011.6
20210301062305 59 280 3.0 9.0 0.01 0.01 0.01 92 1011.6
20210301061804 59 289 1.0 6.0 0.01 0.01 0.01 92 1011.7
20210301061306 60 271 3.0 7.0 0.00 0.00 0.00 91 1011.7
20210301060805 60 298 3.0 8.0 0.00 0.00 0.00 90 1011.7
20210301060317 60 282 5.0 9.0 0.00 0.00 0.00 90 1011.6
20210301055807 60 288 0.0 6.0 0.00 0.00 0.00 90 1011.8
20210301055306 60 277 2.0 7.0 0.00 0.00 0.00 89 1011.7
20210301054806 60 298 1.0 6.0 0.00 0.00 0.00 89 1011.7
20210301054305 61 265 2.0 5.0 0.00 0.00 0.00 89 1011.7
20210301053805 61 308 1.0 7.0 0.00 0.00 0.00 89 1011.7
20210301053305 61 311 1.0 5.0 0.00 0.00 0.00 89 1011.7
20210301052927 62 309 1.0 5.0 0.00 0.00 0.00 88 1011.7
20210301052316 62 341 1.0 8.0 0.00 0.00 0.00 87 1011.7
20210301051807 62 314 1.0 6.0 0.00 0.00 0.00 87 1011.8
20210301051305 62 296 3.0 7.0 0.00 0.00 0.00 87 1011.8
20210301050805 63 276 2.0 6.0 0.00 0.00 0.00 88 1011.7
20210301050308 63 256 1.0 3.0 0.00 0.00 0.00 88 1011.6
20210301045811 63 300 2.0 6.0 0.00 0.00 0.00 88 1011.7
20210301045411 63 262 1.0 5.0 0.00 0.00 0.00 87 1011.7
20210301044844 63 296 2.0 5.0 0.00 0.00 0.00 87 1011.6
20210301044305 63 266 1.0 5.0 0.00 0.00 0.00 87 1011.6
20210301043810 64 318 2.0 6.0 0.00 0.00 0.00 87 1011.5
20210301043308 64 295 2.0 8.0 0.00 0.00 0.00 87 1011.3
20210301042900 64 280 2.0 6.0 0.00 0.00 0.00 86 1011.4
20210301042307 64 275 1.0 6.0 0.00 0.00 0.00 86 1011.3
20210301041805 64 281 1.0 6.0 0.00 0.00 0.00 86 1011.5
20210301041305 65 271 2.0 6.0 0.00 0.00 0.00 85 1011.5
20210301040805 65 189 2.0 6.0 0.00 0.00 0.00 86 1011.5
20210301040307 65 270 1.0 6.0 0.00 0.00 0.00 87 1011.6
20210301035805 66 249 2.0 6.0 0.00 0.00 0.00 87 1011.4
20210301035410 66 269 3.0 6.0 0.00 0.00 0.00 87 1011.4
20210301035005 66 248 1.0 3.0 0.00 0.00 0.00 87 1011.4
20210301034305 66 273 1.0 3.0 0.00 0.00 0.00 87 1011.3
20210301033806 67 299 0.0 2.0 0.00 0.00 0.00 87 1011.1
20210301033310 67 231 1.0 2.0 0.00 0.00 0.00 87 1011.0
20210301032842 67 244 1.0 7.0 0.00 0.00 0.00 87 1010.9
20210301032310 67 227 1.0 5.0 0.00 0.00 0.00 87 1010.8
20210301031808 67 213 1.0 3.0 0.00 0.00 0.00 86 1010.8
20210301031304 67 264 1.0 3.0 0.00 0.00 0.00 86 1010.5
20210301030805 68 226 3.0 7.0 0.00 0.00 0.00 85 1010.5
20210301030307 69 256 4.0 9.0 0.00 0.00 0.00 85 1010.4
20210301025813 69 232 3.0 9.0 0.00 0.00 0.00 86 1010.0
20210301025306 70 219 1.0 7.0 0.00 0.00 0.00 88 1010.0
20210301024805 71 217 2.0 12.0 0.00 0.00 0.00 94 1010.0
20210301024312 70 239 0.0 2.0 0.00 0.00 0.00 94 1009.8
20210301023805 70 98 0.0 0.0 0.00 0.00 0.00 93 1009.7
20210301023305 70 98 0.0 0.0 0.00 0.00 0.00 92 1009.6
20210301022953 70 98 0.0 0.0 0.00 0.00 0.00 92 1009.5
20210301022308 71 98 0.0 0.0 0.00 0.00 0.00 92 1009.4
20210301021811 71 98 0.0 0.0 0.00 0.00 0.00 93 1009.4
20210301021314 70 98 0.0 0.0 0.00 0.00 0.00 93 1009.3
20210301020805 70 98 0.0 0.0 0.00 0.00 0.00 92 1009.2
20210301020310 70 98 0.0 0.0 0.00 0.00 0.00 92 1009.1
20210301015809 70 98 0.0 0.0 0.00 0.00 0.00 91 1009.0
20210301015309 70 98 0.0 0.0 0.00 0.00 0.00 90 1009.1
20210301014807 71 98 0.0 0.0 0.00 0.00 0.00 88 1009.2
20210301014331 71 98 0.0 0.0 0.00 0.00 0.00 88 1009.3
20210301013805 71 98 0.0 0.0 0.00 0.00 0.00 88 1009.3
20210301013305 72 98 0.0 0.0 0.00 0.00 0.00 88 1009.1
20210301012930 72 98 0.0 0.0 0.00 0.00 0.00 87 1009.0
20210301012305 72 98 0.0 0.0 0.00 0.00 0.00 87 1009.0
20210301011806 73 98 0.0 0.0 0.00 0.00 0.00 87 1009.0
20210301011313 73 98 0.0 0.0 0.00 0.00 0.00 87 1008.9
20210301010806 73 98 0.0 0.0 0.00 0.00 0.00 87 1008.7
20210301010305 73 98 0.0 0.0 0.00 0.00 0.00 86 1008.6
20210301005811 73 98 0.0 0.0 0.00 0.00 0.00 86 1008.4
20210301005433 74 98 0.0 0.0 0.00 0.00 0.00 85 1008.2
20210301004920 74 98 0.0 0.0 0.00 0.00 0.00 84 1008.2
20210301004305 74 98 0.0 0.0 0.00 0.00 0.00 84 1008.1
20210301003806 75 98 0.0 0.0 0.00 0.00 0.00 83 1008.1
20210301003313 75 98 0.0 1.0 0.00 0.00 0.00 83 1008.0
20210301002927 75 72 0.0 0.0 0.00 0.00 0.00 83 1007.9
20210301002306 75 72 0.0 0.0 0.00 0.00 0.00 83 1007.8
20210301001805 76 70 0.0 0.0 0.00 0.00 0.00 83 1007.8
20210301001305 76 70 0.0 0.0 0.00 0.00 0.00 83 1007.8
20210301000805 76 70 0.0 0.0 0.00 0.00 0.00 83 1007.7
20210301000306 76 70 0.0 0.0 0.00 0.00 0.00 83 1007.7
20210228235804 76 102 0.0 1.0 0.00 0.00 0.00 83 1007.6
20210228235436 76 114 0.0 0.0 0.00 0.00 0.00 82 1007.7
20210228234810 76 114 0.0 0.0 0.00 0.00 0.00 82 1007.7
20210228234304 76 114 0.0 0.0 0.00 0.00 0.00 82 1007.6
20210228233804 77 118 0.0 0.0 0.00 0.00 0.00 81 1007.7
20210228233313 77 118 0.0 0.0 0.00 0.00 0.00 80 1007.7
20210228232920 78 118 0.0 2.0 0.00 0.00 0.00 79 1007.7
20210228232312 79 113 1.0 2.0 0.00 0.00 0.00 78 1007.7
20210228231806 79 84 0.0 0.0 0.00 0.00 0.00 76 1007.7
20210228231305 79 81 0.0 0.0 0.00 0.00 0.00 76 1007.5
20210228230805 80 83 0.0 0.0 0.00 0.00 0.00 76 1007.5
20210228230305 80 233 0.0 1.0 0.00 0.00 0.00 76 1007.5
20210228225805 80 233 0.0 0.0 0.00 0.00 0.00 74 1007.5
20210228225329 81 235 0.0 2.0 0.00 0.00 0.00 73 1007.6
20210228224815 81 122 0.0 2.0 0.00 0.00 0.00 72 1007.5
20210228224305 81 97 0.0 0.0 0.00 0.00 0.00 71 1007.5
20210228223810 82 259 0.0 1.0 0.00 0.00 0.00 71 1007.6
20210228223310 82 142 1.0 3.0 0.00 0.00 0.00 70 1007.6
20210228222843 82 149 0.0 1.0 0.00 0.00 0.00 70 1007.5
20210228222308 82 137 0.0 1.0 0.00 0.00 0.00 70 1007.4
20210228221808 82 140 1.0 2.0 0.00 0.00 0.00 70 1007.4
20210228221306 82 177 0.0 2.0 0.00 0.00 0.00 70 1007.5
20210228220805 82 133 0.0 1.0 0.00 0.00 0.00 70 1007.5
20210228220304 82 161 1.0 2.0 0.00 0.00 0.00 70 1007.5
20210228215806 82 112 0.0 2.0 0.00 0.00 0.00 70 1007.4
20210228215351 82 104 0.0 3.0 0.00 0.00 0.00 70 1007.5
20210228214818 82 155 0.0 0.0 0.00 0.00 0.00 70 1007.6
20210228214304 83 107 0.0 0.0 0.00 0.00 0.00 70 1007.7
20210228213806 83 108 0.0 2.0 0.00 0.00 0.00 69 1007.6
20210228213305 83 74 0.0 2.0 0.00 0.00 0.00 69 1007.7
20210228212904 83 141 1.0 3.0 0.00 0.00 0.00 68 1007.7
20210228212308 84 102 2.0 5.0 0.00 0.00 0.00 67 1007.8
20210228211806 84 152 1.0 3.0 0.00 0.00 0.00 68 1007.8
20210228211314 83 143 1.0 3.0 0.00 0.00 0.00 68 1007.7
20210228210804 84 114 0.0 3.0 0.00 0.00 0.00 68 1007.7
20210228210305 84 137 1.0 3.0 0.00 0.00 0.00 68 1007.7
20210228205806 85 105 2.0 3.0 0.00 0.00 0.00 66 1007.8
20210228205338 86 201 0.0 2.0 0.00 0.00 0.00 65 1007.7
20210228204850 85 170 1.0 3.0 0.00 0.00 0.00 68 1007.8
20210228204305 84 117 0.0 2.0 0.00 0.00 0.00 70 1007.7
20210228203805 83 103 1.0 3.0 0.00 0.00 0.00 70 1007.7
20210228203309 83 109 1.0 3.0 0.00 0.00 0.00 70 1007.7
20210228202905 83 116 1.0 3.0 0.00 0.00 0.00 70 1007.7
20210228202309 83 114 1.0 3.0 0.00 0.00 0.00 71 1007.8
20210228201805 82 106 1.0 2.0 0.00 0.00 0.00 72 1007.8
20210228201304 83 112 2.0 3.0 0.00 0.00 0.00 70 1007.9
20210228200805 83 110 0.0 3.0 0.00 0.00 0.00 72 1007.8
20210228200305 82 110 2.0 5.0 0.00 0.00 0.00 71 1007.9
20210228195811 82 109 2.0 5.0 0.00 0.00 0.00 71 1007.8
20210228195311 83 101 1.0 6.0 0.00 0.00 0.00 72 1007.9
20210228194813 83 82 2.0 3.0 0.00 0.00 0.00 71 1008.0
20210228194306 83 106 1.0 3.0 0.00 0.00 0.00 71 1008.1
20210228193805 83 97 0.0 3.0 0.00 0.00 0.00 70 1008.1
20210228193304 83 131 2.0 6.0 0.00 0.00 0.00 70 1008.2
20210228193024 83 97 2.0 5.0 0.00 0.00 0.00 70 1008.4
20210228192312 82 159 1.0 5.0 0.00 0.00 0.00 70 1008.5
20210228191804 83 113 2.0 3.0 0.00 0.00 0.00 70 1008.6
20210228191306 83 117 1.0 3.0 0.00 0.00 0.00 70 1008.8
20210228190806 84 122 1.0 2.0 0.00 0.00 0.00 68 1008.9
20210228190305 84 106 1.0 3.0 0.00 0.00 0.00 69 1009.1
20210228185805 84 112 2.0 5.0 0.00 0.00 0.00 67 1009.1
20210228185312 85 118 2.0 5.0 0.00 0.00 0.00 68 1009.1
20210228184804 85 147 2.0 5.0 0.00 0.00 0.00 67 1009.2
20210228184306 85 103 3.0 5.0 0.00 0.00 0.00 66 1009.2
20210228183805 85 116 3.0 5.0 0.00 0.00 0.00 67 1009.3
20210228183305 84 112 2.0 3.0 0.00 0.00 0.00 69 1009.4
20210228183030 83 113 1.0 5.0 0.00 0.00 0.00 72 1009.4
20210228182307 82 112 1.0 5.0 0.00 0.00 0.00 73 1009.5
20210228181804 82 99 2.0 6.0 0.00 0.00 0.00 74 1009.6
20210228181309 81 105 1.0 3.0 0.00 0.00 0.00 73 1009.8
20210228180805 81 95 1.0 3.0 0.00 0.00 0.00 76 1009.9
20210228180306 80 112 3.0 6.0 0.00 0.00 0.00 76 1010.1
20210228175804 80 109 2.0 3.0 0.00 0.00 0.00 76 1010.2
20210228175343 79 114 2.0 3.0 0.00 0.00 0.00 77 1010.4
20210228174812 79 103 0.0 2.0 0.00 0.00 0.00 78 1010.5
20210228174305 79 96 1.0 2.0 0.00 0.00 0.00 78 1010.5
20210228173805 78 117 1.0 2.0 0.00 0.00 0.00 79 1010.6
20210228173308 78 114 0.0 2.0 0.00 0.00 0.00 80 1010.7
20210228172904 78 149 1.0 2.0 0.00 0.00 0.00 82 1010.6
20210228172312 77 117 0.0 1.0 0.00 0.00 0.00 82 1010.7
20210228171806 77 108 0.0 2.0 0.00 0.00 0.00 82 1010.6
20210228171309 77 111 0.0 1.0 0.00 0.00 0.00 83 1010.7
20210228170804 76 131 0.0 0.0 0.00 0.00 0.00 84 1010.8
20210228170312 76 146 0.0 0.0 0.00 0.00 0.00 83 1010.9
20210228165806 77 153 0.0 2.0 0.00 0.00 0.00 83 1010.9
20210228165315 77 107 1.0 2.0 0.00 0.00 0.00 83 1010.8
20210228164805 77 110 0.0 0.0 0.00 0.00 0.00 83 1010.7
20210228164306 77 124 0.0 3.0 0.00 0.00 0.00 84 1010.3
20210228163805 76 95 1.0 5.0 0.00 0.00 0.00 84 1010.4
20210228163306 76 103 1.0 3.0 0.00 0.00 0.00 84 1010.4
20210228162950 76 114 1.0 2.0 0.00 0.00 0.00 85 1010.6
20210228162308 76 131 1.0 2.0 0.00 0.00 0.00 84 1010.6
20210228161805 76 108 1.0 5.0 0.00 0.00 0.00 85 1010.7
20210228161305 76 119 0.0 2.0 0.00 0.00 0.00 86 1010.6
20210228160807 76 126 1.0 3.0 0.00 0.00 0.00 86 1010.3
20210228160318 75 135 0.0 0.0 0.00 0.00 0.00 87 1010.5
20210228155816 75 111 0.0 0.0 0.00 0.00 0.00 88 1010.5
20210228155311 74 102 0.0 1.0 0.00 0.00 0.00 89 1010.6
20210228154808 74 111 0.0 0.0 0.00 0.00 0.00 90 1010.5
20210228154305 73 102 0.0 1.0 0.00 0.00 0.00 90 1010.4
20210228153806 73 98 0.0 1.0 0.00 0.00 0.00 90 1010.4
20210228153304 74 106 0.0 0.0 0.00 0.00 0.00 89 1010.4
20210228152956 74 107 0.0 0.0 0.00 0.00 0.00 89 1010.4
20210228152308 74 111 0.0 0.0 0.00 0.00 0.00 90 1010.4
20210228151805 73 106 0.0 0.0 0.00 0.00 0.00 91 1010.3
20210228151305 73 116 0.0 0.0 0.00 0.00 0.00 90 1010.6
20210228150805 73 116 0.0 2.0 0.00 0.00 0.00 91 1010.6
20210228150308 73 111 0.0 0.0 0.00 0.00 0.00 91 1010.6
20210228145805 73 105 0.0 0.0 0.00 0.00 0.00 91 1010.6
20210228145306 73 99 0.0 0.0 0.00 0.00 0.00 92 1010.5
20210228144805 72 95 0.0 0.0 0.00 0.00 0.00 92 1010.4
20210228144305 72 114 0.0 0.0 0.00 0.00 0.00 92 1010.3
20210228143805 72 92 0.0 2.0 0.00 0.00 0.00 93 1010.2
20210228143307 72 112 0.0 2.0 0.00 0.00 0.00 93 1010.2
20210228143023 71 109 0.0 1.0 0.00 0.00 0.00 94 1010.3
20210228142306 71 111 0.0 1.0 0.00 0.00 0.00 94 1010.2
20210228141806 71 103 0.0 0.0 0.00 0.00 0.00 94 1010.2
20210228141304 71 104 0.0 0.0 0.00 0.00 0.00 94 1010.2
20210228140808 71 236 0.0 0.0 0.00 0.00 0.00 94 1010.1
20210228140305 71 107 0.0 1.0 0.00 0.00 0.00 94 1009.9
20210228135805 70 107 0.0 0.0 0.00 0.00 0.00 95 1009.9
20210228135305 70 118 0.0 1.0 0.00 0.00 0.00 95 1010.0
20210228134805 70 100 0.0 1.0 0.00 0.00 0.00 95 1010.0
20210228134304 70 153 0.0 1.0 0.00 0.00 0.00 95 1009.8
20210228133805 70 107 0.0 0.0 0.00 0.00 0.00 95 1009.6
20210228133310 70 110 0.0 0.0 0.00 0.00 0.00 95 1009.6
20210228132947 70 106 0.0 0.0 0.00 0.00 0.00 96 1009.6
20210228132307 70 104 0.0 0.0 0.00 0.00 0.00 95 1009.6
20210228131809 70 104 0.0 0.0 0.00 0.00 0.00 96 1009.7
20210228131305 70 104 0.0 0.0 0.00 0.00 0.00 95 1009.8
20210228130804 70 104 0.0 0.0 0.00 0.00 0.00 95 1009.8
20210228130307 70 105 0.0 0.0 0.00 0.00 0.00 96 1009.9
20210228125817 70 104 0.0 0.0 0.00 0.00 0.00 95 1009.8
20210228125307 70 104 0.0 0.0 0.00 0.00 0.00 95 1009.8
20210228124806 70 103 0.0 0.0 0.00 0.00 0.00 95 1009.7
20210228124305 70 103 0.0 0.0 0.00 0.00 0.00 95 1009.7
20210228123804 70 103 0.0 0.0 0.00 0.00 0.00 95 1009.7
20210228123309 70 103 0.0 0.0 0.00 0.00 0.00 95 1009.6
20210228123023 70 102 0.0 0.0 0.00 0.00 0.00 95 1009.6
20210228122306 70 98 0.0 0.0 0.00 0.00 0.00 95 1009.6
20210228121845 70 97 0.0 0.0 0.00 0.00 0.00 95 1009.5
20210228121305 70 107 0.0 0.0 0.00 0.00 0.00 95 1009.4
20210228120804 70 110 0.0 0.0 0.00 0.00 0.00 95 1009.4
20210228120305 70 104 0.0 0.0 0.00 0.00 0.00 95 1009.4
20210228115805 70 106 0.0 0.0 0.00 0.00 0.00 95 1009.5
20210228115520 70 106 0.0 0.0 0.00 0.00 0.00 95 1009.3
20210228115041 70 106 0.0 0.0 0.00 0.00 0.00 95 1009.2
20210228114306 70 104 0.0 0.0 0.00 0.00 0.00 95 1009.1
20210228113807 70 103 0.0 0.0 0.00 0.00 0.00 95 1009.1
20210228113307 70 103 0.0 0.0 0.00 0.00 0.00 96 1009.1
20210228112944 70 104 0.0 0.0 0.00 0.00 0.00 95 1009.0
20210228112307 70 104 0.0 0.0 0.00 0.00 0.00 96 1009.0
20210228111806 70 103 0.0 0.0 0.00 0.00 0.00 95 1009.2
20210228111305 70 103 0.0 0.0 0.00 0.00 0.00 96 1009.0
20210228110804 70 115 0.0 0.0 0.00 0.00 0.00 95 1008.9
20210228110309 70 119 0.0 0.0 0.00 0.00 0.00 95 1009.0
20210228105810 70 172 0.0 0.0 0.00 0.00 0.00 95 1009.0
20210228105310 70 113 0.0 0.0 0.00 0.00 0.00 95 1008.8
20210228104811 70 106 0.0 1.0 0.00 0.00 0.00 95 1008.7
20210228104304 70 112 0.0 2.0 0.00 0.00 0.00 95 1008.8
20210228103806 70 112 0.0 1.0 0.00 0.00 0.00 95 1008.7
20210228103305 70 88 0.0 1.0 0.00 0.00 0.00 95 1008.9
20210228103027 70 245 0.0 0.0 0.00 0.00 0.00 95 1009.1
20210228102355 70 248 0.0 0.0 0.00 0.00 0.00 95 1009.1
20210228101810 70 106 0.0 0.0 0.00 0.00 0.00 95 1008.9
20210228101309 70 104 1.0 3.0 0.00 0.00 0.00 95 1008.8
20210228100805 70 104 0.0 0.0 0.00 0.00 0.00 94 1008.9
20210228100310 70 104 0.0 1.0 0.00 0.00 0.00 94 1008.8
20210228095813 70 101 0.0 1.0 0.00 0.00 0.00 94 1008.7
20210228095326 70 98 0.0 1.0 0.00 0.00 0.00 94 1008.7
20210228094810 71 84 0.0 2.0 0.00 0.00 0.00 94 1008.5
20210228094308 71 110 0.0 1.0 0.00 0.00 0.00 94 1008.7
20210228093805 71 166 0.0 1.0 0.00 0.00 0.00 94 1008.8
20210228093305 71 90 0.0 5.0 0.00 0.00 0.00 94 1008.6
20210228092911 71 113 0.0 0.0 0.00 0.00 0.00 94 1008.6
20210228092306 71 104 0.0 0.0 0.00 0.00 0.00 94 1008.8
20210228091809 71 104 0.0 3.0 0.00 0.00 0.00 94 1009.0
20210228091309 71 106 0.0 3.0 0.00 0.00 0.00 94 1009.1
20210228090805 71 102 0.0 0.0 0.00 0.00 0.00 94 1008.9
20210228090306 71 102 0.0 0.0 0.00 0.00 0.00 94 1008.8
20210228085806 71 217 0.0 1.0 0.00 0.00 0.00 94 1008.8
20210228085335 71 118 1.0 2.0 0.00 0.00 0.00 94 1008.9
20210228084818 71 111 0.0 0.0 0.00 0.00 0.00 94 1008.8
20210228084304 71 98 0.0 1.0 0.00 0.00 0.00 94 1008.8
20210228083805 71 107 0.0 5.0 0.00 0.00 0.00 94 1009.0
20210228083305 71 106 0.0 2.0 0.00 0.00 0.00 94 1009.0
20210228082836 71 94 0.0 2.0 0.00 0.00 0.00 94 1009.1
20210228082307 71 104 0.0 0.0 0.00 0.00 0.00 94 1009.2
20210228081804 71 105 0.0 0.0 0.00 0.00 0.00 94 1009.3
20210228081305 71 120 1.0 2.0 0.00 0.00 0.00 94 1009.3
20210228080810 71 118 0.0 2.0 0.00 0.00 0.00 94 1009.4
20210228080308 71 117 0.0 1.0 0.00 0.00 0.00 94 1009.4
20210228075810 71 114 0.0 0.0 0.00 0.00 0.00 94 1009.3
20210228075315 71 106 0.0 0.0 0.00 0.00 0.00 94 1009.4
20210228074805 70 106 0.0 0.0 0.00 0.00 0.00 95 1009.5